[[{"header":{"parameterUnit":"m.s-1","parameterCategory":2,"la1":30.2991,"la2":30.254,"lo1":-89.0895,"lo2":-89.0444,"dy":0.0017,"dx":0.0017,"nx":28,"ny":28,"refTime":"2024-02-16T03:00:00:Z","depth":"0","parameterNumber":2,"parameterNumberName":"U-component_of_CURRENTS"},"data":[0,0,0,0,0,0,0,0,0,0,0,0,0,0,0,0,0,0,0,0,0,0,0,0,0,0,0,0,0,0,0,0,0,0,0,0,0,0,0,0,0,0,0,0,0,0,0,0,0,0,0,0,0,0,0,0,0,0,0.2137,0.2138,0,0.2107,0.2106,0.2105,0.2078,0.2078,0.2078,0.2078,0.2063,0.2062,0.2061,0,0,0,0,0,0,0,0,0,0,0,0,0,0.2107,0.2107,0.2137,0.2138,0.2138,0.2107,0.2106,0.2105,0.2078,0.2078,0.2078,0.2078,0.2063,0.2062,0.2061,0,0,0,0,0,0,0,0,0,0,0,0,0,0.2097,0.2107,0.2137,0.2125,0.2124,0.2107,0.2106,0.2105,0.2078,0.2078,0.2078,0.2079,0.2063,0.2062,0.2061,0.2049,0,0,0.2058,0.2058,0,0,0,0,0,0,0,0,0.2098,0.2097,0.2126,0.2126,0.2125,0.2102,0.209,0.2089,0.2078,0.2089,0.2078,0.2079,0.2081,0.2078,0.2063,0.2048,0.2047,0.2058,0.2058,0.2057,0.2057,0,0,0,0,0,0,0,0.2098,0.2098,0.2119,0.2127,0.2126,0.2099,0.2097,0.2088,0.2079,0.2088,0.2087,0.2093,0.2079,0.2064,0.2063,0.2047,0.2058,0.2057,0.2057,0.2056,0.2068,0.2069,0,0,0,0,0,0,0.2117,0.2099,0.212,0.2119,0.2118,0.21,0.2098,0.2104,0.2079,0.2077,0.2093,0.2092,0.2065,0.2064,0.2062,0.2102,0.2057,0.2056,0.2056,0.2067,0.2068,0.2069,0,0,0,0,0,0,0.2117,0.2119,0.2122,0.2113,0.2112,0.2101,0.2107,0.2103,0.2096,0.2084,0.2081,0.2092,0.2066,0.2063,0.2058,0.2099,0.2056,0.2055,0.2066,0.2068,0.2069,0.2146,0,0,0,0,0,0,0.2116,0.2119,0.2123,0.2114,0.2114,0.2121,0.2107,0.2103,0.2102,0.21,0.2082,0.208,0.2066,0.206,0.2057,0.2097,0.2054,0.2065,0.2067,0.2068,0.2142,0.215,0.2156,0,0,0,0,0,0.2115,0.212,0.2123,0.2126,0.2121,0.2122,0.2119,0.2107,0.2102,0.2101,0.2086,0.2081,0.2069,0.2059,0.2056,0.2097,0.2064,0.2066,0.2068,0.2139,0.2148,0.2156,0,0,0,0,0,0,0.2104,0.2119,0.2121,0.213,0.2133,0.212,0.2119,0.2113,0.2098,0.2098,0.208,0.2077,0.2095,0.2076,0.2065,0.2104,0.2071,0.2073,0.2126,0.2134,0.2141,0.2157,0.2054,0,0,0,0,0,0.2108,0.2116,0.2126,0.2131,0.2138,0.2129,0.2127,0.2124,0.2115,0.2108,0.2097,0.209,0.2098,0.2099,0.2095,0.2105,0.2171,0.2132,0.2139,0.2146,0.2156,0.2299,0.2321,0.2076,0.2076,0.2076,0,0,0.2104,0.2114,0.2117,0.213,0.2129,0.2143,0.2127,0.2133,0.2145,0.211,0.2116,0.2112,0.2105,0.2124,0.2132,0.2115,0.2254,0.2148,0.2154,0.2161,0.2304,0.2328,0.235,0.2077,0.2077,0.2077,0,0,0.2112,0.2114,0.2131,0.2136,0.2151,0.215,0.2159,0.2157,0.2158,0.2162,0.2155,0.2171,0.2161,0.2175,0.218,0.222,0.2288,0.2224,0.2274,0.2413,0.2435,0.2456,0.2601,0.2634,0.2227,0.2228,0.2228,0,0.211,0.2147,0.2133,0.2152,0.218,0.2161,0.22,0.2183,0.2179,0.2218,0.2175,0.2226,0.2191,0.2267,0.2256,0.224,0.2338,0.2245,0.2427,0.2449,0.2469,0.2612,0.2647,0.2231,0.2231,0.2231,0.223,0,0.2144,0.2169,0.218,0.2209,0.2219,0.2252,0.2249,0.2262,0.2266,0.228,0.235,0.2311,0.2363,0.2343,0.2292,0.242,0.2453,0.2427,0.2416,0.2499,0.2643,0.2679,0.2237,0.2236,0.2235,0.2234,0,0,0.2192,0.2207,0.2213,0.2261,0.2273,0.2299,0.2319,0.2384,0.2449,0.2428,0.254,0.2498,0.2514,0.2517,0.249,0.2554,0.2741,0.2538,0.2543,0.27,0.309,0.3015,0.3046,0.2771,0.2777,0.2782,0.3147,0,0.2253,0.2305,0.2296,0.2373,0.2433,0.2429,0.2462,0.2501,0.2534,0.2617,0.2621,0.2689,0.2574,0.2615,0.2668,0.2717,0.2835,0.2646,0.2969,0.2978,0.2917,0.3083,0.2976,0.3283,0.3182,0.3188,0.3192,0,0.2341,0.2373,0.2451,0.2528,0.2552,0.2577,0.2697,0.2718,0.2801,0.2834,0.2909,0.2916,0.2991,0.2882,0.3071,0.297,0.3045,0.3075,0.3091,0.3015,0.2968,0.3176,0.3352,0.3224,0.3247,0.3242,0.3238,0,0.2458,0.251,0.2589,0.2609,0.2659,0.2714,0.2742,0.2813,0.2856,0.2993,0.3054,0.3171,0.322,0.3334,0.3326,0.3257,0.3546,0.3481,0.3513,0.351,0.3473,0.3455,0.3573,0.3687,0.3687,0.3686,0.3685,0,0.2579,0.2649,0.2652,0.2699,0.2805,0.2817,0.2932,0.2973,0.3053,0.3116,0.3177,0.3246,0.3331,0.3454,0.348,0.3602,0.3706,0.3576,0.3615,0.3494,0.3475,0.3398,0.3307,0.3699,0.3696,0.3694,0.3691,0,0.2697,0.2701,0.2797,0.2846,0.2864,0.2939,0.2979,0.3034,0.3125,0.3215,0.3261,0.3369,0.3515,0.3605,0.3796,0.379,0.382,0.3945,0.3783,0.3793,0.3647,0.3563,0.3638,0.3533,0.4091,0.4092,0.4092,0,0.2758,0.2818,0.2869,0.2883,0.2901,0.298,0.2996,0.3066,0.3098,0.325,0.3281,0.3468,0.3529,0.3802,0.388,0.405,0.3865,0.4037,0.3848,0.367,0.361,0.3439,0.3331,0.3871,0.3869,0.3868,0.3867,0,0.2851,0.2859,0.2886,0.2915,0.2939,0.297,0.3001,0.3035,0.3103,0.3178,0.3261,0.3345,0.3595,0.3689,0.3906,0.397,0.382,0.4014,0.3907,0.3514,0.3271,0.3175,0.3597,0.3857,0.3858,0.3859,0.3859,0.386,0.2866,0.2887,0.288,0.2906,0.2919,0.2908,0.2898,0.2922,0.2961,0.3013,0.316,0.3257,0.3489,0.3752,0.3787,0.3799,0.3754,0.3723,0.3674,0.3546,0.3304,0.3681,0.39,0.3901,0.3902,0.3903,0.3904,0,0.2834,0.283,0.2848,0.284,0.2807,0.2843,0.2836,0.2791,0.2773,0.2893,0.2955,0.3182,0.3307,0.3462,0.359,0.3499,0.3344,0.3402,0.3153,0.3089,0.3539,0.3378,0.3397,0.3397,0.3398,0.3398,0.3398,0.3398,0.2802,0.2776,0.2776,0.2705,0.2692,0.2603,0.2571,0.2533,0.2581,0.2628,0.2743,0.2901,0.3144,0.3312,0.3265,0.3198,0.2937,0.2849,0.2797,0.3104,0.3129,0.3152,0.298,0.2916,0.2916,0.2252,0.2247,0.2243]},{"header":{"parameterUnit":"m.s-1","parameterCategory":2,"la1":30.2991,"la2":30.254,"lo1":-89.0895,"lo2":-89.0444,"dy":0.0017,"dx":0.0017,"nx":28,"ny":28,"refTime":"2024-02-16T03:00:00:Z","depth":"0","parameterNumber":3,"parameterNumberName":"V-component_of_CURRENTS"},"data":[0,0,0,0,0,0,0,0,0,0,0,0,0,0,0,0,0,0,0,0,0,0,0,0,0,0,0,0,0,0,0,0,0,0,0,0,0,0,0,0,0,0,0,0,0,0,0,0,0,0,0,0,0,0,0,0,0,0,0.0048,0.0047,0,-0.0026,-0.0027,-0.0028,-0.0085,-0.0085,-0.0086,-0.0086,-0.0153,-0.0154,-0.0155,0,0,0,0,0,0,0,0,0,0,0,0,0,0.0101,0.0101,0.0048,0.0047,0.0046,-0.0026,-0.0027,-0.0028,-0.0085,-0.0085,-0.0086,-0.0086,-0.0152,-0.0154,-0.0156,0,0,0,0,0,0,0,0,0,0,0,0,0,0.0057,0.0101,0.0048,0.001,0.0006,-0.0026,-0.0027,-0.0029,-0.0084,-0.0085,-0.0086,-0.0086,-0.0152,-0.0154,-0.0156,-0.0155,0,0,-0.0162,-0.0163,0,0,0,0,0,0,0,0,0.006,0.0055,0.0017,0.0013,0.0008,-0.0046,-0.0033,-0.007,-0.0084,-0.0051,-0.0086,-0.0087,-0.0116,-0.0121,-0.0134,-0.0158,-0.0161,-0.0162,-0.0163,-0.0164,-0.0165,0,0,0,0,0,0,0,0.0063,0.0058,0.0018,0.0016,0.001,-0.0017,-0.0024,-0.0041,-0.0079,-0.0054,-0.0058,-0.0065,-0.0118,-0.0132,-0.0136,-0.0162,-0.0162,-0.0164,-0.0165,-0.0166,-0.0192,-0.0191,0,0,0,0,0,0,0.0076,0.0061,0.002,0.0016,0.0034,-0.0017,-0.0025,-0.0029,-0.0079,-0.0087,-0.0064,-0.0067,-0.0128,-0.0134,-0.0139,-0.0134,-0.0164,-0.0166,-0.0167,-0.0192,-0.0192,-0.0191,0,0,0,0,0,0,0.0078,0.0074,0.0023,0.0037,0.0029,-0.0017,-0.0021,-0.003,-0.0044,-0.0087,-0.0095,-0.0069,-0.0129,-0.0136,-0.0151,-0.0137,-0.0167,-0.0169,-0.0193,-0.0192,-0.0192,-0.0128,0,0,0,0,0,0,0.008,0.0075,0.0077,0.0038,0.0028,0.0011,-0.0021,-0.0031,-0.0047,-0.0052,-0.0094,-0.0101,-0.013,-0.0147,-0.0153,-0.014,-0.0171,-0.0194,-0.0193,-0.0192,-0.013,-0.0125,-0.012,0,0,0,0,0,0.0082,0.0094,0.0078,0.0073,0.0034,0.0011,0.0004,-0.0032,-0.0046,-0.0048,-0.0076,-0.01,-0.0145,-0.0148,-0.0155,-0.0143,-0.0194,-0.0193,-0.0192,-0.0133,-0.0126,-0.012,0,0,0,0,0,0,0.0124,0.0088,0.007,0.0072,0.0045,0.0002,0.0001,-0.0025,-0.0049,-0.0051,-0.0093,-0.0102,-0.0113,-0.0134,-0.0137,-0.0148,-0.0173,-0.0173,-0.0126,-0.012,-0.0115,-0.0074,-0.0172,0,0,0,0,0,0.0134,0.0131,0.0092,0.0095,0.0085,0.0044,0.0031,0.0007,-0.002,-0.0033,-0.0063,-0.009,-0.0113,-0.012,-0.0146,-0.0146,-0.0124,-0.0143,-0.0137,-0.0133,-0.0104,-0.0079,-0.0068,-0.0187,-0.0187,-0.0187,0,0,0.0151,0.0132,0.0129,0.0103,0.0081,0.0081,0.0035,0.0023,0.0025,-0.0034,-0.0036,-0.0075,-0.011,-0.0118,-0.0123,-0.0132,-0.0081,-0.0131,-0.0127,-0.01,-0.0077,-0.0065,-0.0054,-0.0187,-0.0187,-0.0187,0,0,0.0193,0.0168,0.0182,0.0164,0.0137,0.0112,0.0112,0.0073,0.0057,0.0043,0.0003,-0.0019,-0.0057,-0.0074,-0.0089,-0.0065,-0.006,-0.0081,-0.0014,0.0009,0.002,0.0029,0.0104,0.012,-0.0072,-0.0072,-0.0072,0,0.0218,0.0235,0.0184,0.0194,0.0198,0.0133,0.0161,0.0129,0.009,0.0101,0.0052,0.0021,-0.0031,-0.001,-0.0022,-0.0051,-0.0018,-0.0036,0.0019,0.0028,0.0037,0.0111,0.0128,-0.0068,-0.0069,-0.0069,-0.0069,0,0.0275,0.0284,0.0295,0.0289,0.0277,0.0293,0.0247,0.024,0.0208,0.0184,0.0186,0.0115,0.0114,0.0071,0.0021,0.0061,0.0073,0.0018,0.0009,0.0054,0.0128,0.0145,-0.0064,-0.0065,-0.0066,-0.0067,0,0,0.0372,0.0342,0.035,0.0383,0.0339,0.0357,0.0349,0.0357,0.0407,0.0323,0.0392,0.0289,0.0263,0.0245,0.0186,0.0175,0.0238,0.0123,0.0123,0.0212,0.0342,0.0299,0.0312,0.0192,0.0195,0.0196,0.0382,0,0.0452,0.0505,0.0454,0.0526,0.0572,0.0508,0.0526,0.0514,0.0497,0.0538,0.0454,0.0483,0.0328,0.0351,0.0306,0.0265,0.0279,0.0197,0.0275,0.0279,0.0243,0.0327,0.0253,0.0407,0.0398,0.0401,0.0403,0,0.0564,0.0587,0.0664,0.0702,0.0715,0.0738,0.0805,0.0806,0.0806,0.0798,0.0782,0.0729,0.0709,0.0569,0.053,0.0489,0.043,0.0376,0.0381,0.0332,0.0264,0.0352,0.0436,0.0207,0.0427,0.0425,0.0424,0,0.0739,0.076,0.084,0.0848,0.0855,0.0898,0.0903,0.091,0.0943,0.0994,0.1048,0.0992,0.1016,0.0902,0.0745,0.0665,0.0718,0.0605,0.0526,0.0525,0.0474,0.0463,0.0355,0.0605,0.0604,0.0604,0.0603,0,0.0899,0.0974,0.0939,0.0996,0.1105,0.1065,0.1181,0.118,0.1215,0.1286,0.1212,0.1276,0.1094,0.1067,0.0886,0.078,0.0843,0.0582,0.0571,0.0496,0.0485,0.0289,0.0184,0.0611,0.0609,0.0608,0.0606,0,0.1105,0.1079,0.1171,0.1182,0.1196,0.1283,0.1312,0.1375,0.1424,0.1527,0.1557,0.1542,0.151,0.1337,0.1212,0.1007,0.0768,0.0831,0.0778,0.0753,0.0402,0.0305,0.028,0.0192,0.0788,0.0788,0.0788,0,0.1221,0.1281,0.1299,0.1321,0.1331,0.1419,0.145,0.148,0.1533,0.1669,0.1724,0.1773,0.1761,0.1605,0.1291,0.1068,0.0835,0.0847,0.0637,0.0412,0.0297,0.0227,0.0149,0.0628,0.0626,0.0625,0.0625,0,0.1389,0.1372,0.1399,0.1444,0.1486,0.1552,0.1609,0.1691,0.1738,0.1851,0.1975,0.2008,0.1866,0.1611,0.132,0.11,0.0667,0.0816,0.059,0.0182,0.0098,-0.0002,0.0512,0.0615,0.0616,0.0617,0.0617,0.0618,0.1446,0.1483,0.1459,0.1521,0.1568,0.1647,0.1716,0.1785,0.1912,0.2062,0.211,0.2194,0.1849,0.1425,0.114,0.0562,0.0602,0.0321,0.0243,0.021,0.0039,0.0554,0.0611,0.0612,0.0613,0.0613,0.0614,0,0.1455,0.1466,0.1513,0.1558,0.1619,0.1648,0.1767,0.184,0.1986,0.2146,0.2252,0.2135,0.1658,0.1196,0.0453,0.0043,-0.0113,-0.0173,-0.0326,-0.0365,0.0098,-0.0009,-0.0095,-0.0094,-0.0094,-0.0094,-0.0094,-0.0094,0.1427,0.1447,0.1478,0.1565,0.1616,0.1707,0.1782,0.192,0.2054,0.2229,0.2297,0.2339,0.1932,0.0627,-0.0308,-0.0511,-0.0775,-0.0811,-0.0897,-0.0665,-0.0628,-0.0592,-0.0722,-0.0956,-0.0957,-0.1372,-0.1377,-0.138]}],[{"header":{"parameterUnit":"m.s-1","parameterCategory":2,"la1":30.2991,"la2":30.254,"lo1":-89.0895,"lo2":-89.0444,"dy":0.0017,"dx":0.0017,"nx":28,"ny":28,"refTime":"2024-02-16T03:00:00:Z","depth":"2","parameterNumber":2,"parameterNumberName":"U-component_of_CURRENTS"},"data":[0,0,0,0,0,0,0,0,0,0,0,0,0,0,0,0,0,0,0,0,0,0,0,0,0,0,0,0,0,0,0,0,0,0,0,0,0,0,0,0,0,0,0,0,0,0,0,0,0,0,0,0,0,0,0,0,0,0,0.1649,0.165,0,0.1671,0.1671,0.1672,0.1685,0.1685,0.1685,0.1685,0.1695,0.1695,0.1695,0,0,0,0,0,0,0,0,0,0,0,0,0,0.1624,0.1624,0.1649,0.165,0.165,0.1671,0.1671,0.1672,0.1685,0.1685,0.1685,0.1685,0.1695,0.1695,0.1695,0,0,0,0,0,0,0,0,0,0,0,0,0,0.1639,0.1624,0.1649,0.1659,0.1661,0.1671,0.1671,0.1672,0.1685,0.1685,0.1685,0.1685,0.1695,0.1695,0.1696,0.1694,0,0,0.1696,0.1696,0,0,0,0,0,0,0,0,0.1638,0.164,0.1658,0.1659,0.166,0.1676,0.1666,0.1679,0.1685,0.1675,0.1685,0.1685,0.1688,0.1689,0.1692,0.1694,0.1695,0.1696,0.1696,0.1697,0.1697,0,0,0,0,0,0,0,0.1637,0.1639,0.1657,0.1658,0.1659,0.1665,0.1667,0.1669,0.1679,0.1676,0.1677,0.168,0.1688,0.1692,0.1692,0.1695,0.1696,0.1697,0.1697,0.1697,0.1738,0.1739,0,0,0,0,0,0,0.1635,0.1638,0.1657,0.1658,0.165,0.1665,0.1668,0.167,0.168,0.1682,0.168,0.1681,0.1691,0.1692,0.1693,0.1728,0.1697,0.1697,0.1697,0.1737,0.1738,0.1739,0,0,0,0,0,0,0.1634,0.1636,0.1656,0.1649,0.1652,0.1665,0.1668,0.1671,0.1683,0.1683,0.1685,0.1691,0.1691,0.1692,0.1703,0.1727,0.1697,0.1697,0.1736,0.1737,0.1739,0.1776,0,0,0,0,0,0,0.1633,0.1636,0.1644,0.1649,0.1652,0.1672,0.1668,0.1671,0.1685,0.1686,0.1693,0.1694,0.1691,0.1703,0.1703,0.1727,0.1697,0.1735,0.1737,0.1738,0.1773,0.1778,0.1783,0,0,0,0,0,0.1632,0.1636,0.1644,0.1647,0.1661,0.1673,0.1676,0.1685,0.1685,0.1696,0.1698,0.1694,0.1715,0.1703,0.1704,0.1728,0.1734,0.1736,0.1738,0.1771,0.1777,0.1782,0,0,0,0,0,0,0.1623,0.1638,0.1647,0.1654,0.167,0.1676,0.1684,0.1691,0.1701,0.1703,0.17,0.1701,0.1723,0.1718,0.1706,0.1746,0.1726,0.1729,0.1752,0.1757,0.1762,0.1784,0.1698,0,0,0,0,0,0.1627,0.1637,0.1652,0.166,0.1667,0.1679,0.1687,0.1696,0.1703,0.1708,0.1712,0.1719,0.173,0.1737,0.1744,0.1761,0.1795,0.1779,0.1784,0.1788,0.1807,0.1896,0.1911,0.1746,0.1746,0.1746,0,0,0.1626,0.1635,0.1641,0.166,0.167,0.1687,0.1684,0.17,0.172,0.1707,0.173,0.1734,0.1738,0.1761,0.1771,0.1761,0.1848,0.179,0.1794,0.1811,0.19,0.1916,0.1931,0.1748,0.1747,0.1747,0,0,0.1629,0.1637,0.1652,0.1666,0.1689,0.1697,0.1704,0.172,0.1735,0.1754,0.1756,0.1774,0.1783,0.1798,0.1804,0.1838,0.1869,0.1842,0.1885,0.1971,0.1986,0.1999,0.2045,0.2063,0.1845,0.1846,0.1846,0,0.1634,0.1651,0.1659,0.1677,0.1692,0.1702,0.1725,0.1739,0.1759,0.1788,0.1767,0.1815,0.1803,0.1854,0.1861,0.185,0.19,0.1861,0.1979,0.1994,0.2007,0.2051,0.207,0.1848,0.1847,0.1847,0.1847,0,0.1647,0.1668,0.1675,0.1704,0.1721,0.174,0.1761,0.1785,0.1798,0.1826,0.1879,0.187,0.1915,0.1901,0.1886,0.1976,0.1979,0.1976,0.1969,0.2026,0.2068,0.2087,0.1851,0.185,0.1849,0.1849,0,0,0.1652,0.1682,0.1689,0.1711,0.174,0.1755,0.1791,0.1843,0.1893,0.1908,0.1996,0.1979,0.2008,0.2017,0.2011,0.2058,0.2165,0.2061,0.2065,0.2112,0.2352,0.2272,0.2284,0.2202,0.2206,0.2209,0.2337,0,0.1671,0.1705,0.1718,0.1759,0.1782,0.1805,0.1841,0.189,0.1937,0.2026,0.2049,0.2131,0.2046,0.2098,0.2126,0.2174,0.2222,0.213,0.2285,0.2289,0.2216,0.2306,0.2117,0.2209,0.2355,0.2358,0.2361,0,0.1699,0.1714,0.1752,0.1801,0.1815,0.1842,0.1921,0.1966,0.2083,0.2129,0.2212,0.227,0.235,0.2287,0.2374,0.2332,0.2352,0.2361,0.2367,0.2299,0.2245,0.2179,0.2239,0.2393,0.239,0.2388,0.2386,0,0.1696,0.1752,0.1781,0.1793,0.1837,0.1873,0.192,0.2011,0.2081,0.2253,0.2333,0.2431,0.2498,0.2555,0.2541,0.251,0.2638,0.2604,0.254,0.2533,0.2403,0.2378,0.2695,0.2695,0.2695,0.2694,0.2694,0,0.1697,0.1718,0.179,0.1783,0.1847,0.1899,0.1994,0.2046,0.2195,0.229,0.241,0.2491,0.2576,0.2647,0.2638,0.2635,0.2721,0.2576,0.258,0.2405,0.238,0.256,0.2543,0.2699,0.2698,0.2697,0.2696,0,0.1662,0.1693,0.1723,0.179,0.1834,0.1879,0.2024,0.21,0.2232,0.2374,0.2456,0.2591,0.2676,0.2718,0.2807,0.2736,0.277,0.2743,0.2507,0.248,0.2586,0.2569,0.2733,0.2731,0.273,0.2729,0.2729,0,0.1628,0.1654,0.1732,0.176,0.1785,0.1893,0.1968,0.2104,0.2187,0.2392,0.245,0.2619,0.2659,0.2747,0.2723,0.2741,0.2764,0.2557,0.2452,0.2613,0.26,0.2585,0.257,0.229,0.2286,0.2282,0.2279,0,0.157,0.1614,0.1642,0.1718,0.1777,0.1865,0.1984,0.2045,0.2202,0.2299,0.2412,0.2495,0.2592,0.2528,0.2555,0.2526,0.2547,0.2485,0.2772,0.2294,0.2202,0.2186,0.2186,0.2248,0.2251,0.2253,0.2255,0.2256,0.154,0.1557,0.1617,0.1678,0.1747,0.18,0.1838,0.1958,0.2042,0.2126,0.2248,0.2275,0.2332,0.2276,0.2231,0.2226,0.2381,0.228,0.2289,0.2302,0.2212,0.2122,0.2135,0.2137,0.214,0.2141,0.2143,0,0.1486,0.1528,0.1587,0.1616,0.1651,0.1728,0.182,0.1828,0.186,0.1937,0.1988,0.1837,0.1836,0.1922,0.1869,0.1877,0.1837,0.1811,0.1746,0.1781,0.1811,0.1692,0.1479,0.1477,0.1474,0.1472,0,0,0.1443,0.1457,0.1488,0.1499,0.1557,0.1565,0.1589,0.1602,0.1642,0.1567,0.1565,0.1689,0.1836,0.1599,0.1599,0.1537,0.1631,0.1479,0.2018,0.1975,0.2001,0.21,0.1959,0,0,0,0,0]},{"header":{"parameterUnit":"m.s-1","parameterCategory":2,"la1":30.2991,"la2":30.254,"lo1":-89.0895,"lo2":-89.0444,"dy":0.0017,"dx":0.0017,"nx":28,"ny":28,"refTime":"2024-02-16T03:00:00:Z","depth":"2","parameterNumber":3,"parameterNumberName":"V-component_of_CURRENTS"},"data":[0,0,0,0,0,0,0,0,0,0,0,0,0,0,0,0,0,0,0,0,0,0,0,0,0,0,0,0,0,0,0,0,0,0,0,0,0,0,0,0,0,0,0,0,0,0,0,0,0,0,0,0,0,0,0,0,0,0,-0.0099,-0.01,0,-0.0143,-0.0143,-0.0143,-0.0172,-0.0172,-0.0172,-0.0172,-0.0225,-0.0226,-0.0227,0,0,0,0,0,0,0,0,0,0,0,0,0,-0.0058,-0.0059,-0.0099,-0.01,-0.01,-0.0142,-0.0143,-0.0144,-0.0172,-0.0172,-0.0172,-0.0172,-0.0225,-0.0226,-0.0227,0,0,0,0,0,0,0,0,0,0,0,0,0,-0.0086,-0.0059,-0.0099,-0.012,-0.0122,-0.0142,-0.0143,-0.0144,-0.0172,-0.0172,-0.0172,-0.0172,-0.0224,-0.0226,-0.0228,-0.0232,0,0,-0.0233,-0.0234,0,0,0,0,0,0,0,0,-0.0084,-0.0087,-0.0116,-0.0118,-0.0121,-0.0152,-0.0148,-0.0174,-0.0171,-0.0152,-0.0172,-0.0173,-0.0202,-0.0205,-0.0212,-0.0235,-0.0237,-0.0233,-0.0234,-0.0235,-0.0236,0,0,0,0,0,0,0,-0.0082,-0.0086,-0.0116,-0.0117,-0.012,-0.0133,-0.0137,-0.0153,-0.0175,-0.0154,-0.0156,-0.0162,-0.0203,-0.021,-0.0214,-0.0238,-0.0233,-0.0235,-0.0236,-0.0237,-0.027,-0.027,0,0,0,0,0,0,-0.0076,-0.0084,-0.0115,-0.0117,-0.0103,-0.0133,-0.0138,-0.0142,-0.0174,-0.018,-0.0161,-0.0163,-0.0207,-0.0211,-0.0216,-0.0221,-0.0235,-0.0237,-0.0238,-0.027,-0.027,-0.027,0,0,0,0,0,0,-0.0075,-0.0079,-0.0113,-0.0102,-0.0107,-0.0133,-0.0138,-0.0142,-0.0151,-0.018,-0.0185,-0.0165,-0.0207,-0.0213,-0.0226,-0.0224,-0.0238,-0.0239,-0.027,-0.027,-0.027,-0.0234,0,0,0,0,0,0,-0.0074,-0.0078,-0.0078,-0.0101,-0.0108,-0.0122,-0.0138,-0.0143,-0.0154,-0.0156,-0.0185,-0.019,-0.0208,-0.0223,-0.0228,-0.0226,-0.0241,-0.0271,-0.027,-0.027,-0.0235,-0.0233,-0.023,0,0,0,0,0,-0.0072,-0.0068,-0.0077,-0.0081,-0.0107,-0.0122,-0.0126,-0.0146,-0.0154,-0.0155,-0.0173,-0.0189,-0.0224,-0.0225,-0.023,-0.0229,-0.0271,-0.027,-0.027,-0.0237,-0.0233,-0.023,0,0,0,0,0,0,-0.0048,-0.0072,-0.0082,-0.0085,-0.0101,-0.0127,-0.0129,-0.0143,-0.0158,-0.0159,-0.0186,-0.0193,-0.0204,-0.022,-0.022,-0.0237,-0.0251,-0.0251,-0.0223,-0.022,-0.0218,-0.0208,-0.0242,0,0,0,0,0,-0.0043,-0.0047,-0.0072,-0.0073,-0.008,-0.0104,-0.0112,-0.0125,-0.0143,-0.015,-0.017,-0.019,-0.0206,-0.0216,-0.0232,-0.0241,-0.0259,-0.0244,-0.0241,-0.0239,-0.0235,-0.0252,-0.0251,-0.0268,-0.0268,-0.0268,0,0,-0.0034,-0.0047,-0.005,-0.0069,-0.0082,-0.0087,-0.0109,-0.0118,-0.0122,-0.0153,-0.0161,-0.0181,-0.0206,-0.0215,-0.0222,-0.0229,-0.0245,-0.0238,-0.0236,-0.0233,-0.0252,-0.025,-0.0248,-0.0268,-0.0268,-0.0268,0,0,-0.0017,-0.0029,-0.0028,-0.0039,-0.0057,-0.0071,-0.0073,-0.0096,-0.0106,-0.0117,-0.0139,-0.0157,-0.0181,-0.0199,-0.0211,-0.0203,-0.0229,-0.0209,-0.0188,-0.0206,-0.0204,-0.0203,-0.0229,-0.023,-0.0208,-0.0208,-0.0208,0,-0.0006,-0.0011,-0.0029,-0.003,-0.0037,-0.0062,-0.0062,-0.0072,-0.0097,-0.0103,-0.0113,-0.0149,-0.0173,-0.0186,-0.0184,-0.0197,-0.0212,-0.0198,-0.0202,-0.0201,-0.02,-0.0227,-0.0229,-0.0206,-0.0207,-0.0207,-0.0207,0,0.0007,0.0005,0.0007,-0.0003,-0.001,-0.0014,-0.0032,-0.0039,-0.0054,-0.0068,-0.0083,-0.0113,-0.0134,-0.0146,-0.0164,-0.0173,-0.0186,-0.0195,-0.0208,-0.0196,-0.0225,-0.0228,-0.0204,-0.0204,-0.0205,-0.0205,0,0,0.002,0.0017,0.0017,0.0012,0.0002,-0.0007,-0.0003,-0.0017,-0.0023,-0.0038,-0.0042,-0.0073,-0.0088,-0.0103,-0.0128,-0.0147,-0.0164,-0.0166,-0.0168,-0.0189,-0.0206,-0.0233,-0.0239,-0.017,-0.017,-0.017,-0.0229,0,0.0031,0.0038,0.0034,0.0036,0.0032,0.0019,0.002,0.0009,-0.0007,-0.0014,-0.0034,-0.0047,-0.0071,-0.0081,-0.01,-0.0138,-0.0168,-0.0147,-0.0216,-0.0219,-0.0242,-0.0242,-0.0204,-0.0255,-0.0232,-0.0233,-0.0233,0,0.0033,0.0037,0.0044,0.0042,0.0039,0.004,0.0027,0.0024,0.0016,0.0006,0.0,-0.001,-0.0022,-0.0051,-0.0105,-0.0087,-0.0146,-0.0185,-0.0188,-0.0227,-0.0251,-0.0262,-0.0261,-0.0238,-0.0238,-0.0237,-0.0237,0,0.0017,0.0037,0.0041,0.004,0.0039,0.0039,0.0038,0.0027,0.0026,0.0022,0.0024,0.0014,-0.0009,-0.0041,-0.0111,-0.0104,-0.0186,-0.0186,-0.0274,-0.0277,-0.0265,-0.0267,-0.0248,-0.0248,-0.0248,-0.0248,-0.0248,0,0.0002,-0.0004,0.0037,0.0023,0.0035,0.0036,0.0033,0.0025,0.0034,0.0053,0.0035,0.0044,-0.0011,-0.0054,-0.01,-0.0193,-0.0178,-0.0272,-0.0292,-0.0253,-0.0253,-0.0253,-0.0252,-0.025,-0.025,-0.0249,-0.0249,0,-0.0057,-0.0028,-0.0021,0.0007,0.0015,0.0018,0.0036,0.0045,0.0039,0.0068,0.0079,0.005,0.0014,-0.0055,-0.0139,-0.0207,-0.0271,-0.0325,-0.0281,-0.0295,-0.0351,-0.0348,-0.0397,-0.0398,-0.0399,-0.04,-0.0401,0,-0.0098,-0.0094,-0.004,-0.0015,-0.0009,0.0007,0.0028,0.0041,0.0068,0.0088,0.0117,0.0071,0.0105,-0.0044,-0.0179,-0.0274,-0.0308,-0.0368,-0.0349,-0.035,-0.0365,-0.0361,-0.0356,-0.0322,-0.0322,-0.0322,-0.0322,0,-0.016,-0.0126,-0.0109,-0.0046,-0.0008,0.0031,0.0068,0.0105,0.0149,0.0215,0.0301,0.034,0.0162,0.0079,-0.0148,-0.0224,-0.033,-0.0375,-0.0386,-0.0292,-0.0285,-0.0298,-0.0295,-0.0323,-0.0323,-0.0323,-0.0323,-0.0323,-0.0184,-0.0168,-0.0105,-0.0052,0.0001,0.0086,0.0142,0.0228,0.0342,0.0483,0.047,0.0551,0.0322,0.0109,-0.0092,-0.034,-0.0332,-0.0396,-0.0393,-0.0391,-0.0374,-0.0369,-0.042,-0.0421,-0.0421,-0.0422,-0.0422,0,-0.0167,-0.0143,-0.0105,-0.0007,0.0071,0.0088,0.0201,0.0318,0.0516,0.063,0.0758,0.0638,0.0483,0.0221,-0.0128,-0.0342,-0.0346,-0.0415,-0.0361,-0.0359,-0.0357,-0.0336,-0.0374,-0.0375,-0.0375,-0.0375,0,0,-0.0144,-0.0095,-0.0072,0.0062,0.0122,0.0259,0.0346,0.0543,0.0673,0.0864,0.092,0.0917,0.059,0.0353,0.0044,-0.0156,-0.0203,-0.02,-0.0215,-0.0112,-0.0107,-0.0327,-0.0291,0,0,0,0,0]}],[{"header":{"parameterUnit":"m.s-1","parameterCategory":2,"la1":30.2991,"la2":30.254,"lo1":-89.0895,"lo2":-89.0444,"dy":0.0017,"dx":0.0017,"nx":28,"ny":28,"refTime":"2024-02-16T03:00:00:Z","depth":"4","parameterNumber":2,"parameterNumberName":"U-component_of_CURRENTS"},"data":[0,0,0,0,0,0,0,0,0,0,0,0,0,0,0,0,0,0,0,0,0,0,0,0,0,0,0,0,0,0,0,0,0,0,0,0,0,0,0,0,0,0,0,0,0,0,0,0,0,0,0,0,0,0,0,0,0,0,0.1024,0.1025,0,0.1093,0.1094,0.1095,0.1146,0.1147,0.1147,0.1148,0.1194,0.1195,0.1196,0,0,0,0,0,0,0,0,0,0,0,0,0,0.0937,0.0938,0.1024,0.1025,0.1026,0.1093,0.1094,0.1095,0.1146,0.1147,0.1148,0.1148,0.1194,0.1195,0.1196,0,0,0,0,0,0,0,0,0,0,0,0,0,0.0986,0.0938,0.1024,0.1061,0.1065,0.1093,0.1094,0.1095,0.1146,0.1147,0.1148,0.1149,0.1194,0.1195,0.1196,0.1185,0,0,0.1199,0.12,0,0,0,0,0,0,0,0,0.0983,0.0989,0.1054,0.1058,0.1063,0.1113,0.1081,0.1125,0.1146,0.1114,0.1148,0.1149,0.1165,0.1169,0.1178,0.1188,0.119,0.1199,0.12,0.12,0.1201,0,0,0,0,0,0,0,0.098,0.0986,0.105,0.1055,0.1061,0.1074,0.1082,0.1089,0.1133,0.1117,0.1121,0.113,0.1167,0.1177,0.118,0.119,0.1199,0.12,0.1201,0.1201,0.1259,0.126,0,0,0,0,0,0,0.0973,0.0983,0.1048,0.1053,0.1026,0.1075,0.1084,0.1095,0.1133,0.114,0.113,0.1133,0.1175,0.1179,0.1182,0.1233,0.12,0.1201,0.1202,0.1258,0.1259,0.126,0,0,0,0,0,0,0.0971,0.0978,0.1045,0.102,0.103,0.1076,0.1088,0.1096,0.1131,0.1143,0.115,0.1159,0.1176,0.118,0.1213,0.1233,0.1202,0.1203,0.1257,0.1259,0.126,0.1297,0,0,0,0,0,0,0.0968,0.0977,0.0991,0.102,0.1031,0.1077,0.1088,0.1097,0.1134,0.1139,0.117,0.1174,0.1177,0.1212,0.1214,0.1234,0.1204,0.1256,0.1258,0.1259,0.1295,0.1299,0.1303,0,0,0,0,0,0.0965,0.0979,0.0991,0.0999,0.1046,0.1078,0.1086,0.1119,0.1135,0.1153,0.1178,0.1174,0.1224,0.1213,0.1216,0.1237,0.1255,0.1257,0.1259,0.1293,0.1298,0.1303,0,0,0,0,0,0,0.0953,0.0986,0.1,0.1026,0.1056,0.1088,0.1111,0.1131,0.1165,0.1176,0.1187,0.1192,0.123,0.1227,0.1215,0.1258,0.1238,0.1241,0.1263,0.1268,0.1273,0.1271,0.1204,0,0,0,0,0,0.0954,0.0975,0.1007,0.1031,0.1047,0.1082,0.1103,0.1127,0.1156,0.1174,0.1195,0.1216,0.1235,0.1248,0.1263,0.1285,0.1295,0.13,0.1304,0.1308,0.1308,0.1336,0.1343,0.1267,0.1267,0.1267,0,0,0.0957,0.0979,0.0992,0.1031,0.1059,0.1083,0.1098,0.1138,0.1163,0.1171,0.1218,0.1236,0.1246,0.1276,0.1291,0.1279,0.134,0.131,0.1314,0.1312,0.1339,0.1346,0.1353,0.1268,0.1268,0.1268,0,0,0.0967,0.0995,0.1012,0.1037,0.1081,0.11,0.1115,0.1158,0.1186,0.1226,0.124,0.1273,0.1301,0.1315,0.1322,0.1359,0.1365,0.1365,0.1384,0.1412,0.1418,0.1424,0.147,0.1479,0.1364,0.1364,0.1364,0,0.0971,0.0996,0.1024,0.1046,0.1068,0.1109,0.1131,0.1162,0.1213,0.1232,0.1247,0.1307,0.1318,0.1351,0.1367,0.1369,0.1392,0.1363,0.1418,0.1424,0.1429,0.1474,0.1484,0.1366,0.1366,0.1366,0.1366,0,0.0985,0.1014,0.103,0.1068,0.1093,0.1124,0.1162,0.1199,0.1236,0.1261,0.1317,0.1346,0.1381,0.139,0.139,0.1433,0.1442,0.1423,0.1404,0.1439,0.1484,0.1494,0.1369,0.1369,0.1368,0.1367,0,0,0.0969,0.1028,0.1036,0.1051,0.1107,0.1123,0.1173,0.1216,0.1243,0.1304,0.1341,0.139,0.1417,0.1428,0.1444,0.1465,0.153,0.1462,0.1463,0.1508,0.1612,0.1496,0.1496,0.1522,0.1523,0.1524,0.1638,0,0.0975,0.1011,0.1044,0.1078,0.1093,0.1143,0.1181,0.1225,0.1267,0.1312,0.1363,0.1408,0.1429,0.1457,0.1487,0.1518,0.1553,0.1502,0.1571,0.1574,0.1465,0.1501,0.1529,0.1645,0.1647,0.1649,0.165,0,0.0968,0.0994,0.1028,0.1073,0.1086,0.1114,0.1168,0.1211,0.1281,0.1316,0.138,0.1422,0.1496,0.1492,0.1593,0.1563,0.1595,0.1614,0.1618,0.1498,0.1473,0.1597,0.1667,0.1666,0.1664,0.1663,0.1662,0,0.0915,0.0975,0.1,0.1017,0.1079,0.1105,0.1147,0.121,0.1247,0.1328,0.1368,0.1453,0.1519,0.1571,0.1637,0.1625,0.1723,0.171,0.1642,0.1636,0.1692,0.1684,0.1767,0.1767,0.1767,0.1767,0.1766,0,0.0884,0.0902,0.0979,0.0986,0.1014,0.1074,0.1115,0.1162,0.124,0.1285,0.1378,0.1429,0.1541,0.1613,0.1652,0.1681,0.175,0.1653,0.1651,0.1709,0.1701,0.1701,0.1691,0.1771,0.177,0.1769,0.1768,0,0.0803,0.0866,0.0884,0.0958,0.0984,0.1,0.109,0.1117,0.1213,0.1278,0.1316,0.1441,0.1543,0.1632,0.1721,0.17,0.1728,0.1716,0.1795,0.1794,0.1629,0.1621,0.1667,0.1664,0.1661,0.1659,0.1657,0,0.0757,0.0763,0.0841,0.0856,0.0888,0.0941,0.0979,0.1083,0.1122,0.1274,0.1297,0.1432,0.1511,0.1561,0.1648,0.1718,0.1696,0.1708,0.1646,0.1622,0.1617,0.1613,0.1608,0.1652,0.1651,0.1651,0.165,0,0.0648,0.0691,0.0712,0.0755,0.0793,0.0829,0.0899,0.0925,0.1063,0.1173,0.125,0.1316,0.1423,0.1501,0.1561,0.1601,0.1693,0.1678,0.1684,0.1626,0.1605,0.1601,0.16,0.164,0.1642,0.1643,0.1643,0,0.0566,0.0555,0.0602,0.0631,0.0674,0.0692,0.0755,0.083,0.0895,0.1089,0.1113,0.1266,0.1398,0.1441,0.1492,0.1524,0.1515,0.1468,0.1485,0.1497,0.1387,0.1331,0.1284,0,0,0,0,0,0.0477,0.0463,0.0475,0.051,0.0553,0.0588,0.0685,0.0765,0.0929,0.095,0.1031,0.1126,0.1224,0.1298,0.1304,0.1422,0.1511,0.1421,0.1461,0.1586,0.1597,0.1482,0,0,0,0,0,0,0.0419,0.042,0.0432,0.04,0.0415,0.0457,0.0517,0.0636,0.0669,0.0844,0.0906,0.1045,0.1157,0.1207,0.1275,0.1302,0.1302,0.1525,0.1522,0.158,0.159,0.1599,0.1484,0,0,0,0,0]},{"header":{"parameterUnit":"m.s-1","parameterCategory":2,"la1":30.2991,"la2":30.254,"lo1":-89.0895,"lo2":-89.0444,"dy":0.0017,"dx":0.0017,"nx":28,"ny":28,"refTime":"2024-02-16T03:00:00:Z","depth":"4","parameterNumber":3,"parameterNumberName":"V-component_of_CURRENTS"},"data":[0,0,0,0,0,0,0,0,0,0,0,0,0,0,0,0,0,0,0,0,0,0,0,0,0,0,0,0,0,0,0,0,0,0,0,0,0,0,0,0,0,0,0,0,0,0,0,0,0,0,0,0,0,0,0,0,0,0,-0.0032,-0.0032,0,-0.0066,-0.0066,-0.0067,-0.0085,-0.0085,-0.0085,-0.0085,-0.0121,-0.0122,-0.0123,0,0,0,0,0,0,0,0,0,0,0,0,0,0.0,-0.0,-0.0032,-0.0032,-0.0033,-0.0066,-0.0066,-0.0067,-0.0085,-0.0085,-0.0085,-0.0085,-0.0121,-0.0122,-0.0123,0,0,0,0,0,0,0,0,0,0,0,0,0,-0.0021,-0.0,-0.0032,-0.0046,-0.0048,-0.0066,-0.0066,-0.0067,-0.0085,-0.0085,-0.0085,-0.0085,-0.012,-0.0122,-0.0123,-0.0129,0,0,-0.0127,-0.0128,0,0,0,0,0,0,0,0,-0.002,-0.0022,-0.0043,-0.0045,-0.0047,-0.0072,-0.0068,-0.0088,-0.0085,-0.007,-0.0085,-0.0085,-0.0105,-0.0108,-0.0113,-0.0131,-0.0132,-0.0127,-0.0128,-0.0129,-0.0129,0,0,0,0,0,0,0,-0.0018,-0.0021,-0.0045,-0.0044,-0.0046,-0.0057,-0.006,-0.0072,-0.0086,-0.0072,-0.0073,-0.0077,-0.0106,-0.0112,-0.0114,-0.0133,-0.0127,-0.0128,-0.0129,-0.013,-0.0155,-0.0155,0,0,0,0,0,0,-0.0014,-0.002,-0.0044,-0.0046,-0.0034,-0.0057,-0.0061,-0.0063,-0.0086,-0.009,-0.0077,-0.0078,-0.0109,-0.0113,-0.0115,-0.0121,-0.0129,-0.013,-0.0131,-0.0155,-0.0155,-0.0155,0,0,0,0,0,0,-0.0013,-0.0016,-0.0042,-0.0034,-0.0038,-0.0058,-0.006,-0.0064,-0.0072,-0.0091,-0.0094,-0.0082,-0.011,-0.0114,-0.0125,-0.0122,-0.0131,-0.0132,-0.0156,-0.0155,-0.0155,-0.0133,0,0,0,0,0,0,-0.0012,-0.0015,-0.0016,-0.0033,-0.0038,-0.0052,-0.0061,-0.0064,-0.0075,-0.0076,-0.0096,-0.0099,-0.011,-0.0123,-0.0126,-0.0124,-0.0133,-0.0156,-0.0156,-0.0155,-0.0134,-0.0132,-0.013,0,0,0,0,0,-0.0011,-0.0011,-0.0016,-0.0019,-0.0038,-0.0052,-0.0055,-0.0069,-0.0075,-0.0077,-0.009,-0.0099,-0.0124,-0.0124,-0.0128,-0.0126,-0.0156,-0.0156,-0.0155,-0.0135,-0.0132,-0.013,0,0,0,0,0,0,0.0001,-0.0013,-0.0019,-0.0024,-0.0036,-0.0055,-0.0059,-0.0069,-0.0081,-0.0082,-0.0099,-0.0103,-0.0113,-0.0122,-0.0122,-0.0133,-0.0141,-0.0141,-0.0124,-0.0122,-0.012,-0.0115,-0.0134,0,0,0,0,0,0.0004,0.0001,-0.0015,-0.0019,-0.0024,-0.0042,-0.0049,-0.0058,-0.0071,-0.0077,-0.0091,-0.0104,-0.0114,-0.012,-0.0132,-0.0138,-0.0162,-0.0139,-0.0138,-0.0136,-0.0134,-0.0162,-0.0163,-0.0154,-0.0154,-0.0154,0,0,0.0007,-0.0001,-0.0003,-0.0017,-0.0027,-0.003,-0.0046,-0.0056,-0.0057,-0.0079,-0.0085,-0.01,-0.0115,-0.0122,-0.0126,-0.013,-0.0154,-0.0136,-0.0134,-0.0134,-0.0162,-0.0163,-0.0163,-0.0154,-0.0154,-0.0154,0,0,0.0014,0.0006,0.0006,-0.0001,-0.0014,-0.0023,-0.0025,-0.0043,-0.005,-0.0059,-0.0073,-0.0086,-0.0103,-0.0112,-0.0119,-0.0115,-0.0145,-0.0119,-0.0106,-0.0132,-0.0133,-0.0135,-0.0178,-0.0183,-0.0117,-0.0117,-0.0117,0,0.0018,0.0015,0.0003,0.0003,0.0001,-0.0018,-0.0017,-0.0025,-0.0044,-0.0049,-0.0057,-0.0085,-0.0097,-0.0106,-0.0103,-0.0111,-0.0138,-0.0112,-0.013,-0.0132,-0.0133,-0.0178,-0.0184,-0.0116,-0.0116,-0.0116,-0.0116,0,0.0023,0.0024,0.0023,0.002,0.0017,0.0013,0.0003,-0.0001,-0.0012,-0.0025,-0.004,-0.0061,-0.0077,-0.0082,-0.0091,-0.0105,-0.0126,-0.0127,-0.0135,-0.0133,-0.018,-0.0187,-0.0114,-0.0115,-0.0115,-0.0115,0,0,0.0019,0.0027,0.0026,0.0033,0.0025,0.0025,0.0027,0.0019,0.0022,-0.0003,-0.0008,-0.003,-0.0048,-0.0056,-0.0073,-0.0094,-0.0131,-0.0113,-0.0114,-0.0156,-0.0208,-0.0176,-0.0181,-0.0136,-0.0137,-0.0138,-0.0241,0,0.0024,0.0038,0.0037,0.005,0.0054,0.0048,0.0055,0.0049,0.0037,0.0029,-0.0001,-0.0012,-0.0036,-0.0041,-0.0069,-0.0115,-0.0146,-0.0104,-0.0204,-0.0207,-0.0179,-0.0186,-0.014,-0.0247,-0.0248,-0.0249,-0.025,0,0.0015,0.0032,0.0048,0.007,0.0072,0.0081,0.009,0.0094,0.0079,0.0073,0.0048,0.002,-0.002,-0.0032,-0.0125,-0.0101,-0.0151,-0.0189,-0.0194,-0.0174,-0.0186,-0.0247,-0.0263,-0.0262,-0.0261,-0.026,-0.0259,0,0.0008,0.0032,0.005,0.0056,0.008,0.0091,0.0104,0.0103,0.0129,0.0099,0.0111,0.004,0.0024,-0.0059,-0.0141,-0.014,-0.0242,-0.0251,-0.0276,-0.0276,-0.0285,-0.0282,-0.0311,-0.0311,-0.0311,-0.0311,-0.031,0,0.0003,0.0014,0.0053,0.0063,0.0105,0.0106,0.0148,0.0148,0.0168,0.0203,0.0136,0.0146,0.0021,-0.0049,-0.0141,-0.023,-0.025,-0.0277,-0.0295,-0.0275,-0.027,-0.0291,-0.0287,-0.0315,-0.0314,-0.0313,-0.0312,0,-0.0005,0.0006,0.0041,0.0084,0.0102,0.0135,0.0209,0.0253,0.0244,0.0288,0.0284,0.0224,0.0125,-0.0003,-0.014,-0.0208,-0.031,-0.0332,-0.0314,-0.0329,-0.0335,-0.0329,-0.0389,-0.0389,-0.0388,-0.0388,-0.0388,0,0.0002,0.0016,0.0076,0.0125,0.0152,0.0211,0.0272,0.0295,0.0346,0.0345,0.0374,0.029,0.0232,0.0048,-0.0093,-0.0287,-0.0295,-0.0365,-0.0341,-0.0329,-0.0341,-0.0335,-0.033,-0.0387,-0.0387,-0.0387,-0.0387,0,0.0047,0.0059,0.0108,0.0199,0.0271,0.0348,0.0421,0.0457,0.0483,0.0475,0.0456,0.0351,0.0247,0.0077,-0.0069,-0.0201,-0.0336,-0.0362,-0.0364,-0.0342,-0.0328,-0.0339,-0.0334,-0.0386,-0.0386,-0.0386,-0.0386,0,0.0105,0.0153,0.0223,0.0297,0.0383,0.0458,0.0486,0.0542,0.0575,0.0549,0.0541,0.0405,0.0317,0.0124,-0.001,-0.0143,-0.0174,-0.0218,-0.0228,-0.0231,-0.0145,-0.0103,-0.0107,0,0,0,0,0,0.0175,0.0235,0.0325,0.0404,0.0479,0.0517,0.0587,0.0606,0.0604,0.0607,0.0572,0.047,0.0271,0.0181,0.0056,-0.0002,-0.0197,-0.0154,-0.0253,-0.038,-0.0381,-0.0303,0,0,0,0,0,0,0.0236,0.0321,0.0348,0.0471,0.0524,0.0618,0.0652,0.0654,0.0644,0.061,0.0506,0.0439,0.0245,0.0339,0.0051,0.001,-0.0069,-0.0254,-0.0257,-0.0379,-0.038,-0.0381,-0.0301,0,0,0,0,0]}]]